GFSMA_500_rhum_111.txt.gz
RH
55 51 43 40 39 41 42 37 40 45 41 32 34 34 27 24 25 29 41 48 56 50 34 31 28 29 24 42 94 96 95 52 42 65 73 70 70 70 70 63 55 54 54
83 66 43 36 36 38 42 37 47 49 45 42 38 37 34 30 23 29 32 39 37 52 47 29 23 33 21 64 96 97 97 65 45 61 68 76 66 73 69 58 51 51 46
94 69 38 37 36 33 40 42 46 51 43 38 38 32 30 34 28 22 29 25 30 33 37 33 19 21 24 63 94 96 96 90 46 57 72 73 67 71 70 61 53 50 50
91 66 40 36 36 36 32 44 63 62 53 38 32 29 19 18 27 19 21 30 30 31 31 39 23 16 23 36 92 96 97 96 71 58 72 76 71 70 74 65 63 54 52
59 72 75 48 33 25 23 27 40 48 59 52 28 26 18 11 11 18 16 16 32 30 28 31 30 15 18 18 46 96 97 95 90 59 73 77 77 71 72 66 66 56 52
45 45 60 35 31 27 15 11 14 22 41 52 40 29 18 9 12 21 15 11 24 28 23 30 23 17 17 16 25 61 94 96 95 69 76 80 81 71 68 68 62 56 56
34 55 60 50 31 17 17 20 14 22 38 61 57 44 20 12 17 15 13 13 23 35 22 22 22 22 17 18 14 33 72 94 94 83 83 80 79 64 66 66 64 52 52
18 16 11 25 37 41 68 57 48 71 55 82 92 67 76 28 17 18 21 15 21 36 26 18 23 21 20 16 13 22 47 94 96 93 79 81 72 77 84 64 60 50 53
14 15 17 33 38 28 38 56 94 100 91 93 90 83 68 41 43 32 35 27 27 34 28 20 23 23 21 16 12 14 28 86 96 94 76 79 66 73 83 62 37 40 50
21 18 22 20 33 44 62 65 77 93 97 98 94 97 51 32 29 38 37 42 26 36 30 23 25 25 21 16 12 35 65 76 96 96 79 77 81 80 74 43 36 32 35
21 16 12 8 14 36 66 69 47 46 61 49 61 98 83 56 38 26 31 41 22 36 32 26 26 28 23 12 16 86 97 92 96 96 93 75 82 80 60 47 51 37 38
9 7 7 6 4 6 52 70 72 56 47 28 49 92 80 82 49 35 37 73 37 49 34 27 30 25 24 15 45 95 97 97 96 96 96 84 79 73 63 59 60 61 52
7 5 3 3 19 34 56 93 96 92 68 66 48 88 100 97 62 66 65 52 74 72 36 27 32 22 29 22 64 97 97 97 97 97 96 96 83 71 67 81 81 79 80
4 3 6 39 50 50 54 82 98 96 83 43 31 82 82 80 89 58 61 68 64 75 42 37 32 26 36 31 74 97 97 97 96 97 97 97 97 85 80 95 94 93 92
3 26 41 45 50 54 70 96 97 91 70 56 86 69 56 96 49 66 65 69 63 76 51 40 26 39 48 31 40 92 97 97 98 92 96 97 90 78 85 95 99 98 96
28 40 53 68 57 61 87 94 85 67 44 53 91 83 98 97 87 86 56 77 71 74 44 45 22 40 43 45 50 71 86 91 96 96 99 100 94 91 95 95 98 97 95
31 42 82 94 60 76 97 93 60 40 44 70 98 78 92 75 95 91 99 88 95 89 56 38 19 18 28 53 88 98 88 89 93 95 97 97 97 98 98 96 98 95 94
44 60 91 99 94 93 96 77 71 50 57 99 86 89 87 90 99 83 99 99 98 90 72 28 16 34 45 38 51 64 87 88 97 98 93 95 95 71 42 43 67 98 97
48 63 83 86 94 97 99 66 68 64 70 74 90 99 96 96 93 98 97 96 99 84 64 26 24 18 28 29 28 40 69 96 98 94 93 98 92 90 72 39 74 99 97
55 66 70 79 89 98 98 98 93 94 79 78 97 98 95 76 63 93 93 94 94 96 47 23 24 19 25 24 22 27 36 58 64 91 94 94 93 84 68 42 53 96 99
54 74 74 76 89 97 95 98 98 98 79 79 88 85 83 76 81 94 94 99 98 56 29 38 22 24 20 18 18 20 22 28 46 63 68 69 54 55 43 77 96 99 100
58 75 82 88 90 91 82 94 96 96 79 78 70 88 81 96 98 98 96 94 66 41 24 30 27 24 22 18 17 21 24 46 99 81 82 95 92 46 81 97 97 98 99
75 73 82 92 90 90 96 97 94 89 77 88 87 79 93 88 91 91 81 63 39 21 18 22 20 18 19 22 22 26 40 71 89 90 100 97 91 69 93 97 96 97 97
86 91 91 91 88 97 95 96 96 93 91 89 94 88 93 93 86 78 58 47 32 21 20 20 19 21 24 26 34 49 72 92 100 92 94 97 95 96 98 96 99 100 99
95 87 93 99 94 96 95 97 97 94 96 94 96 89 82 98 97 83 54 44 35 23 22 28 24 24 26 39 94 100 96 98 98 84 94 98 98 88 81 82 89 99 98
97 96 97 98 99 100 98 96 97 97 98 95 95 78 80 88 100 80 52 46 48 36 31 31 28 23 26 44 87 93 91 95 95 86 100 98 99 98 92 94 91 100 99

GFSMA_500_rhum_114.txt.gz
RH
41 43 46 57 50 45 36 31 26 25 25 31 43 47 43 37 29 27 26 26 32 48 47 52 57 50 38 34 35 37 88 97 96 55 48 71 60 69 68 68 64 56 52
66 69 81 90 86 67 45 35 32 31 29 29 39 47 46 42 44 35 33 37 34 45 36 32 39 46 34 26 29 40 94 95 96 72 42 71 65 66 67 68 68 59 54
95 86 82 84 96 88 44 34 34 34 32 34 41 50 51 44 38 43 47 41 30 31 32 31 34 36 43 34 29 38 87 96 96 92 45 67 73 70 67 62 64 58 56
65 88 94 96 96 91 50 38 37 34 34 38 53 68 70 50 38 30 30 39 37 26 37 33 30 31 40 39 33 38 69 97 96 96 49 56 75 74 67 66 67 61 55
81 66 75 76 92 93 94 57 39 35 35 41 53 81 76 60 48 31 20 18 22 24 22 22 28 27 37 35 26 31 41 60 96 96 63 54 70 74 69 67 72 66 64
43 49 52 54 63 72 74 97 83 38 28 33 43 57 68 63 58 40 28 20 14 18 20 15 15 24 26 32 20 27 29 40 91 97 96 82 64 81 77 69 73 68 66
33 32 35 32 30 42 58 74 90 100 98 85 35 42 37 40 53 46 30 26 27 17 17 15 12 18 20 24 21 25 32 32 26 87 96 95 71 83 83 74 72 71 68
29 30 28 26 24 22 25 48 67 95 99 97 97 96 80 66 50 49 33 22 33 18 16 17 11 18 16 20 21 20 31 34 21 33 96 96 78 76 79 78 73 69 71
30 26 25 23 22 22 19 17 28 52 76 67 74 94 96 95 87 64 37 20 19 20 20 23 17 15 18 20 22 22 22 17 13 24 69 97 83 80 80 83 76 65 72
28 27 25 25 24 22 22 20 20 34 53 49 54 75 98 97 95 96 78 42 25 21 24 31 32 17 20 23 23 24 23 18 13 15 45 93 94 82 82 88 70 80 74
30 28 28 26 23 24 24 25 24 19 26 44 49 60 79 97 91 96 97 83 38 37 19 19 24 22 18 26 25 26 24 18 11 30 30 94 97 82 83 81 72 80 72
29 30 30 26 24 20 18 10 6 5 6 13 23 33 54 69 66 80 89 98 81 52 31 21 23 12 15 33 28 27 21 14 15 67 75 97 96 81 79 78 72 79 66
34 34 29 24 13 11 9 6 6 4 16 11 19 40 79 86 93 62 53 96 76 52 45 38 50 25 22 36 29 24 23 20 49 92 95 95 96 90 77 79 77 79 54
33 30 22 8 6 6 5 3 3 10 50 50 58 94 97 97 98 84 67 54 70 64 57 58 50 41 36 37 30 24 28 44 99 99 97 97 97 97 92 81 84 76 61
31 18 7 4 5 3 9 24 35 39 48 50 56 88 86 88 97 96 78 75 75 72 55 100 59 66 62 36 36 31 32 93 98 96 97 96 97 97 96 90 83 74 68
20 8 6 6 3 3 27 35 46 57 54 54 88 99 98 96 76 81 95 98 88 67 75 65 53 68 66 47 30 48 37 54 84 97 97 97 97 97 97 97 94 87 84
10 7 6 5 3 14 44 54 71 51 57 96 93 87 89 95 100 83 85 80 76 74 59 54 68 80 69 48 30 50 46 39 48 92 97 97 97 97 97 97 97 95 86
8 9 8 5 3 37 50 81 84 78 82 98 78 63 75 90 97 97 77 86 64 80 85 74 95 86 51 42 24 21 31 58 86 87 90 94 98 98 91 87 93 90 86
9 10 8 4 3 38 62 75 97 97 97 97 82 49 70 94 81 90 90 80 84 100 98 97 98 97 60 48 19 24 27 46 93 83 82 85 93 97 97 97 99 98 98
12 10 8 3 4 58 70 74 92 98 97 96 84 74 76 97 100 85 97 97 96 93 98 96 97 96 77 32 21 23 31 30 34 52 84 87 96 93 89 85 95 95 90
11 8 7 5 24 60 78 76 90 94 96 95 91 84 87 97 98 98 98 93 97 98 99 97 92 96 66 28 26 20 23 22 21 25 42 68 78 91 99 92 96 93 96
8 8 5 22 63 77 82 81 83 96 94 97 97 97 96 97 96 96 92 72 74 82 92 93 91 97 54 26 23 21 21 18 18 18 19 24 34 52 66 78 78 78 78
8 6 7 49 85 93 88 98 96 97 98 100 97 97 93 91 80 93 96 100 99 97 97 92 98 90 36 35 28 27 24 20 16 16 19 20 24 58 81 72 86 85 78
5 10 29 79 93 86 88 89 95 95 93 97 97 97 95 83 93 87 95 97 98 97 98 98 93 52 27 24 25 21 18 16 17 18 19 22 38 47 67 69 96 95 74
40 57 75 92 98 94 96 97 94 95 93 97 91 84 91 93 99 87 91 98 97 98 82 71 42 30 22 19 18 15 18 20 24 50 56 54 71 91 94 93 89 98 86
100 100 100 99 99 99 99 98 98 98 98 96 96 99 97 100 98 96 98 98 99 75 64 41 36 37 21 19 19 20 20 25 50 91 97 98 95 97 94 95 99 97 98

GFSMA_500_rhum_117.txt.gz
RH
57 44 43 42 42 42 45 54 56 56 54 48 39 37 44 39 35 35 29 27 26 25 32 36 41 47 53 56 53 37 41 54 96 97 96 82 72 56 54 57 61 58 57
65 67 70 64 54 58 57 74 74 65 59 50 45 44 45 49 40 36 36 30 30 30 36 38 40 32 36 37 48 54 37 50 90 96 97 87 71 68 57 57 57 62 60
80 77 82 82 78 92 73 91 94 83 62 50 49 44 48 48 36 38 38 37 35 34 40 37 35 27 28 37 40 44 44 51 79 97 97 91 55 77 60 59 58 60 63
88 84 78 69 80 92 96 96 96 94 73 41 42 53 49 38 35 34 37 35 36 34 37 34 24 24 28 27 32 38 42 45 64 83 97 96 53 75 66 63 62 57 56
85 86 92 94 90 81 100 94 97 99 94 60 41 57 50 43 41 42 43 45 39 33 26 26 20 14 16 20 21 30 44 41 54 60 83 97 81 65 77 67 65 62 59
57 62 70 71 78 65 85 95 98 86 86 96 96 68 54 50 36 37 45 48 57 38 24 17 16 16 13 13 12 19 32 31 37 50 51 96 93 60 80 77 70 68 70
50 46 47 54 52 61 59 61 57 51 58 100 99 94 96 96 95 95 95 72 60 57 37 28 15 16 17 14 10 12 18 22 32 42 35 96 96 85 67 79 79 68 74
49 41 40 39 38 35 35 38 29 28 37 47 72 96 97 97 94 96 98 96 97 65 56 36 28 20 17 15 10 12 18 20 28 47 48 56 84 97 64 68 80 78 70
44 37 36 36 35 31 29 28 26 27 25 34 31 48 57 67 70 72 88 94 98 88 74 42 36 28 22 21 16 12 16 21 20 30 46 43 69 88 96 82 78 85 76
43 37 35 32 32 30 26 25 23 21 16 18 19 34 40 46 45 50 60 72 97 88 88 44 32 32 27 24 21 16 11 19 22 22 27 69 44 80 90 96 84 91 85
45 37 34 32 31 28 26 27 24 22 20 17 18 16 20 27 33 40 48 56 86 99 98 92 53 29 27 22 20 24 18 14 24 23 25 18 55 80 79 97 94 91 84
42 37 33 31 31 29 29 27 27 26 25 24 24 21 16 15 21 25 25 31 32 49 78 93 96 46 51 44 20 14 16 13 19 26 26 21 13 46 37 61 96 82 82
34 31 35 36 37 32 31 29 30 29 26 23 17 9 7 7 6 8 22 25 20 25 60 82 85 75 55 51 30 34 14 12 18 27 27 21 15 78 98 64 97 86 77
60 37 37 36 39 36 35 34 30 26 18 13 9 8 7 5 12 26 36 44 38 56 59 82 86 96 70 64 45 49 29 18 25 27 26 24 15 64 96 97 96 96 79
96 84 58 62 41 42 37 30 23 14 13 9 6 3 6 18 40 49 60 62 70 82 79 97 90 90 64 76 56 58 44 28 31 29 28 43 62 79 98 96 96 97 84
68 81 77 37 38 34 30 14 6 6 7 4 3 17 31 43 47 52 54 91 82 82 83 98 89 61 59 74 67 73 53 41 32 28 38 86 98 98 85 97 97 96 85
49 45 41 36 34 25 13 8 6 6 3 3 24 36 67 64 60 80 97 96 93 89 92 96 94 78 87 70 74 57 62 55 34 35 55 96 98 98 98 96 97 97 96
63 50 44 39 34 16 8 8 8 6 3 11 44 89 57 66 99 91 91 100 95 98 98 96 98 96 85 72 36 35 68 58 34 54 84 94 97 97 97 97 97 97 97
51 50 41 34 24 13 9 9 6 3 2 25 64 96 87 97 98 87 84 80 95 98 86 97 97 96 86 54 62 76 77 50 32 36 56 75 97 97 97 97 97 97 97
50 46 39 35 15 12 12 11 6 2 17 53 64 99 99 96 91 83 74 93 98 93 96 85 86 74 91 83 95 95 79 40 30 21 42 92 96 95 94 97 97 96 98
52 46 34 19 16 14 11 7 3 10 46 67 63 83 92 84 66 57 88 96 98 92 81 70 72 97 99 100 88 92 96 61 23 28 44 72 89 85 95 96 95 99 97
55 47 30 19 16 14 9 4 7 49 62 71 68 80 94 92 91 99 97 95 69 71 97 88 93 94 98 99 83 88 83 52 24 30 30 26 31 40 75 88 95 95 97
45 32 23 20 14 10 6 3 48 74 87 91 96 90 97 87 100 96 98 90 95 98 92 94 94 91 96 98 88 93 87 55 31 24 23 19 16 16 22 26 41 53 61
18 20 15 12 8 5 4 3 62 95 100 98 100 100 91 98 97 100 92 95 93 75 93 98 90 88 96 93 95 98 93 45 27 21 18 18 16 15 14 15 19 19 24
9 7 6 6 5 4 5 26 80 99 98 98 100 96 100 97 97 96 98 89 95 93 99 85 89 98 98 98 96 92 81 44 32 29 26 22 16 14 15 18 18 20 36
95 88 92 84 62 64 72 81 97 98 99 98 99 97 100 99 99 97 93 87 100 95 98 99 86 98 97 97 97 81 46 35 27 25 21 15 15 17 24 41 44 42 53

GFSMA_500_rhum_120.txt.gz
RH
64 68 66 65 59 48 47 51 55 52 50 54 50 47 44 39 37 33 34 38 36 29 27 26 35 25 38 40 43 41 50 56 52 74 96 91 96 91 50 57 61 54 52
68 68 67 67 73 71 67 68 62 57 54 57 66 66 55 49 39 30 34 37 38 40 38 32 29 32 35 37 32 34 38 46 53 62 92 90 92 95 77 56 59 53 50
77 76 77 73 80 82 87 88 94 93 84 71 81 80 70 53 45 36 34 38 39 36 40 45 39 37 37 30 21 28 34 35 41 46 86 97 93 96 92 59 60 55 50
87 88 82 82 89 93 95 92 96 96 84 97 93 86 80 67 52 38 40 40 43 40 40 39 42 41 39 28 20 24 29 34 40 35 60 80 95 97 94 77 60 58 53
76 81 78 84 92 96 96 96 96 93 94 95 97 96 94 89 62 49 44 42 46 38 42 43 38 38 37 35 20 23 26 25 32 40 38 65 70 96 90 66 66 63 61
65 73 74 79 75 76 84 91 96 94 96 98 93 95 96 80 97 93 93 83 90 84 84 65 61 44 34 25 24 17 19 22 20 27 27 43 61 79 97 72 68 66 66
68 72 72 70 70 60 58 71 77 96 97 99 93 95 97 98 93 100 89 98 98 98 96 97 94 52 40 26 19 18 18 19 17 19 21 30 46 53 96 94 67 75 68
67 80 76 70 66 59 52 54 59 66 62 74 71 89 84 61 63 60 70 80 90 96 96 94 88 96 48 35 25 19 15 16 13 14 25 31 37 45 83 97 87 85 79
96 97 89 81 75 64 53 49 45 41 38 37 41 42 48 53 59 53 58 71 45 63 71 70 63 94 86 43 32 23 18 14 11 10 19 27 28 43 57 96 96 94 90
98 100 98 90 78 67 48 45 42 39 36 34 30 28 28 34 35 31 33 40 38 37 44 58 58 74 94 81 39 30 28 22 17 12 14 21 24 32 47 76 95 92 79
85 97 95 86 68 58 46 43 41 37 33 30 26 22 19 19 21 18 16 17 18 22 32 36 40 60 93 96 68 43 30 30 25 19 13 13 22 33 33 66 73 97 84
96 81 90 88 65 53 46 40 37 32 29 25 22 23 22 20 20 20 21 20 18 13 9 15 20 51 66 63 55 92 38 37 30 18 19 16 13 24 36 60 75 81 98
98 96 83 76 70 56 41 34 32 27 23 23 22 22 22 24 27 26 24 20 14 10 10 8 8 13 24 23 36 70 79 64 51 28 16 16 14 18 24 28 23 66 67
81 96 56 51 56 51 43 36 32 31 30 30 28 30 32 31 27 20 16 13 11 8 5 5 12 18 26 27 36 66 70 83 60 37 30 15 14 22 24 24 23 16 51
100 100 99 70 65 60 43 40 39 38 39 36 41 37 29 21 13 12 12 9 3 4 11 25 43 53 57 72 56 79 74 100 70 50 39 28 20 23 26 25 23 18 100
34 84 89 83 85 87 88 67 53 62 69 57 41 22 12 7 12 9 4 3 8 19 27 48 62 71 80 79 95 89 92 98 77 82 64 44 27 24 27 25 22 18 97
25 33 87 88 72 68 69 72 86 55 48 34 31 22 10 12 9 4 3 17 35 52 65 66 61 72 92 93 100 99 88 81 70 89 70 46 33 31 27 24 40 54 98
18 20 38 64 93 92 57 50 44 41 38 26 11 10 9 9 5 3 9 53 75 62 70 89 99 98 94 99 98 98 88 69 69 87 76 58 47 35 30 37 87 64 98
24 19 22 43 53 57 57 50 45 38 35 14 9 10 7 5 4 4 50 76 60 68 98 97 96 98 99 96 97 100 87 75 90 72 48 52 58 36 39 79 97 98 97
28 25 25 32 44 48 49 46 41 28 14 12 11 10 8 3 2 26 63 84 89 97 96 98 96 100 96 98 98 98 90 91 66 44 40 76 47 36 49 93 95 97 97
27 30 33 44 42 46 47 43 27 24 16 13 12 6 3 2 7 62 92 98 95 88 79 68 86 100 98 98 98 95 98 92 61 70 78 71 40 30 52 93 97 97 96
27 28 29 45 52 50 43 34 25 17 16 14 7 2 2 8 48 69 80 99 93 70 64 100 96 92 98 96 97 98 91 85 78 98 95 52 42 22 26 82 98 94 98
30 26 31 21 18 29 27 22 21 17 14 7 4 3 14 57 71 87 94 96 98 81 70 97 94 93 87 78 93 77 94 93 96 95 96 74 49 35 41 56 94 96 93
15 16 12 8 7 7 14 14 12 8 5 4 3 3 47 80 93 100 100 100 97 94 95 97 86 84 82 97 78 84 97 96 97 95 90 73 42 24 33 27 30 37 45
92 61 36 32 23 9 7 6 6 5 4 3 3 19 63 96 100 99 89 98 98 96 98 97 98 82 81 85 96 99 91 98 98 95 95 83 51 29 26 23 20 19 19
100 100 100 100 98 100 97 89 74 42 27 11 8 74 88 98 100 98 98 98 97 97 98 94 100 100 100 98 98 97 99 95 99 99 97 95 50 30 24 22 23 20 17